Content
SEND FEEDBACK

Daily
Averages
Monthly
Summary
Brazil

SAO LUIS, MARANHÃO


Home > South America > Brazil > Maranhão
Elevation: 53 meters     Latitude: 02 36S     Longitude: 044 14W

WEATHER
 
SELECT A DAY
Number of Records: 170,262;   Date Range: 6/30/96 - 11/21/14
 
SHARE

PRINT THIS DATA

[ ← Previous Day ]
WEATHER ALMANAC - 31 JANUARY, 2013
[ Next Day → ]
[ °F ]   °C
Weather ElementAverageHighLow
Temperature28.8 °C32 °C (12:00 pm)26 °C (6:00 am)
Dewpoint19.1 °C21 °C (11:00 pm)16 °C (1:00 pm)
Humidity55 %70 % (11:00 pm)35 % (3:00 pm)
Barometer1010.5 hPa1012.2 hPa (9:00 am)1009.1 hPa (3:00 pm)
Wind Speed19.3 km/h37 km/h (3:00 pm)
Weather ElementAverage
Visibility11.4 km
Wind DirectionENE (52.6 °)

Weather ElementTotal
Precipitation---
Cooling Degree Days10.7 (Base 18.3)
Growing Degree Days19 (Base 10)
Averaged from 27 records on 31 January, 2013
WEATHER CONDITIONS BREAKOUT
WIND DIRECTION BREAKOUT
WEATHER BY HOUR - 31 JANUARY, 2013
[ °F ]   °C
Local TimeTemperatureDewpointHumidityBarometerVisibilityWind DirectionWind SpeedGust SpeedPrecipitationEventsConditions
1:00 AM27 °C20 °C65 %1011.2 hPa10 kmENE (60°)11.1 km/hScattered Clouds
2:00 AM27 °C20 °C65 %1011.2 hPa10 kmENE (60°)9.3 km/hScattered Clouds
3:00 AM27.2 °C19.4 °C53 %1010.5 hPa19.3 kmENE (60°)18.5 km/hScattered Clouds
3:00 AM27 °C19 °C61 %1010.2 hPa10 kmENE (60°)18.5 km/hMostly Cloudy
4:00 AM27 °C20 °C65 %1010.2 hPa10 kmENE (60°)13 km/hScattered Clouds
5:00 AM27 °C20 °C65 %1010.2 hPa10 kmENE (60°)7.4 km/hPartly Cloudy
6:00 AM26 °C20 °C69 %1010.2 hPa10 kmENE (60°)3.7 km/hPartly Cloudy
7:00 AM27 °C20 °C65 %1011.2 hPa10 kmENE (60°)11.1 km/hPartly Cloudy
8:00 AM28 °C20 °C62 %1011.2 hPa10 kmEast (80°)11.1 km/hPartly Cloudy
9:00 AM28.9 °C20 °C49 %1011.9 hPa19.3 kmENE (60°)16.7 km/hPartly Cloudy
9:00 AM29 °C20 °C58 %1012.2 hPa10 kmENE (60°)16.7 km/hScattered Clouds
10:00 AM30 °C18 °C48 %1011.2 hPa10 kmNE (50°)22.2 km/hMostly Cloudy
11:00 AM31 °C18 °C46 %1011.2 hPa10 kmENE (60°)25.9 km/hMostly Cloudy
12:00 PM32 °C18 °C43 %1011.2 hPa10 kmNE (50°)29.6 km/hMostly Cloudy
1:00 PM32 °C16 °C38 %1011.2 hPa10 kmNE (40°)35.2 km/hMostly Cloudy
2:00 PM31 °C17 °C43 %1010.2 hPa10 kmNNE (30°)25.9 km/hScattered Clouds
3:00 PM31.7 °C18.3 °C35 %1009.5 hPa19.3 kmNE (50°)37 km/hPartly Cloudy
3:00 PM32 °C18 °C43 %1009.1 hPa10 kmNE (50°)37 km/hScattered Clouds
4:00 PM31 °C16 °C40 %1009.1 hPa10 kmNE (50°)25.9 km/hScattered Clouds
5:00 PM30 °C18 °C48 %1009.1 hPa10 kmNE (40°)24.1 km/hMostly Cloudy
6:00 PM29 °C19 °C55 %1009.1 hPa10 kmNE (40°)25.9 km/hScattered Clouds
7:00 PM29 °C20 °C58 %1009.1 hPa10 kmNE (50°)20.4 km/hPartly Cloudy
8:00 PM28 °C20 °C62 %1010.2 hPa10 kmNE (40°)14.8 km/hPartly Cloudy
9:00 PM27.8 °C20 °C54 %1010.2 hPa19.3 kmNE (40°)14.8 km/hPartly Cloudy
9:00 PM28 °C20 °C62 %1010.2 hPa10 kmNE (40°)14.8 km/hScattered Clouds
10:00 PM28 °C20 °C62 %1010.2 hPaNE (50°)16.7 km/hClear
11:00 PM27 °C21 °C70 %1010.2 hPaENE (60°)14.8 km/hClear
Hourly data recorded from SBSL, located 0 kilometers away from Sao Luis, Maranhão







STORIES FROM OUR PARTNERS